INTELSAT 33E DEB, 64407

Orbit data source: Space-Track

INTELSAT 33E DEB, 64407 is space debris in GEO originally from a launch on Wed, 24 Aug 2016 UTC launched from the French Guiana (FRGUI). Debris objects in space refer to the collection of defunct objects orbiting the Earth. Examples of debris include non-operational satellites, rocket bodies, and fragments generated from explosions, collisions, or faulty payload assembly.

Loading next visibility...
Identifier
64407, 2016-053AM
Orbit
GEO
Country
Flag of USUS / ITSO
Related business
Manufacturer
Boeing/ES
Mission
Spacecraft
Bus & Motor
Unknown
Mass
Unknown
Launch date (UTC)
2016-08-24 (10 years ago)
Launch vehicle
Unknown
Launch site
French Guiana (FRGUI)
Object type
Payload
Rocket body
Debris
Shape & HBR
Unknown shape, 1.1 m
Radar Cross Section
RCS unknown

Expand to show TLE details & history
Last TLE update: 1 day ago

TLE from 1 day ago
0 INTELSAT 33E DEB
1 64407U 16053AM  26165.48323025 -.00000175  00000-0  00000-0 0  9997
2 64407   1.4882  65.8875 0302326 105.0196 257.2438  0.96107780  5636
Epoch: 2026-06-14T11:35Z
TLE epoch observation values (Epoch: 2026-06-14T11:35:51.093Z)
Latitude
Longitude
-11.92617°
Altitude
37,320.215 km
Speed
3.009 km/s
True Right ascension
04h 19m 16s
True Declination
0° 00' 00"
Sunlit
Object was in daylight at epoch
Visualization orbit readout
Latitude
Unknown
Longitude
Unknown
Altitude
Unknown
Speed
Unknown
Apparent Right ascension
Unknown
Apparent Declination
Unknown
Sunlit
N/A
Visualization observer readout
Local Sidereal Time
03:53:48
Azimuth
Unknown
Elevation
Unknown
Doppler factor
Unknown
Orbital elements
Apogee altitude
38,308.246 km
Perigee altitude
35,685.565 km
Semi-major axis
43,375.043 km
Eccentricity
0.03023
Inclination
1.4882°
RAAN
65.8875°
Arg. of periapsis
105.0196°
True anomaly
253.89478°
Mean anomaly
257.2438°
Eccentric anomaly
255.56627°
Mean motion
0.24026 °/min
Orbital period
1,498.37 mins
BSTAR
0
Loading maneuver chart data...
Computing Atmospheric mass density...
Loading historical data...
Loading historical data...
Loading historical data...
Loading historical data...
Loading historical data...
Loading historical data...
Loading historical data...

Documentation

Showing up to 5 results
|